Location: Trebic
(49.2170°N, 15.8830°E)
Time: 22:59:20
(UTC+02:00)

Transit 4A - Pass Details

Date: 26 July 2019
Orbit: 863 x 981 km, 66.8° (Epoch: 24 August)

Event Time Altitude Azimuth Distance (km) Brightness Sun altitude
Exits shadow 02:14:05 27° 231° (SW) 1,781 8.9 -19.5°
Maximum altitude 02:17:44 70° 309° (NW) 1,043 8.2 -19.3°
Drops below altitude 10° 02:24:10 10° 33° (NNE) 2,738 11.5 -18.9°
Sets 02:26:46 0° 36° (NE) 3,682 12.5 -18.8°
